FW9305 Weather Reports


time (UTC)temp
C
wind
direction
speed
KPH
gust
KPH
rain 1hr
cm
rain 24hr
cm
rain mn
cm
humidity
%
barometer
mb
20260509161529 26 210 0.0 1.6 0.00 0.00 0.00 75 1009.8
20260509160026 26 210 0.0 0.0 0.00 0.00 0.00 78 1009.7
20260509154518 25 210 0.0 0.0 0.00 0.00 0.00 83 1009.7
20260509153030 25 210 0.0 1.6 0.00 0.00 0.00 84 1009.9
20260509151516 24 210 0.0 0.0 0.00 0.00 0.00 85 1009.9
20260509150015 24 210 0.0 1.6 0.00 0.00 0.00 90 1009.9
20260509144523 23 210 0.0 0.0 0.00 0.00 0.00 91 1009.7
20260509143007 22 210 0.0 0.0 0.00 0.00 0.00 93 1009.7
20260509141513 22 210 0.0 0.0 0.00 0.00 0.00 95 1009.9
20260509140003 22 210 0.0 0.0 0.00 0.00 0.00 95 1009.8
20260509134503 22 210 0.0 0.0 0.00 0.00 0.00 96 1009.7
20260509133100 22 210 0.0 0.0 0.00 0.00 0.00 96 1009.6
20260509131556 22 210 0.0 0.0 0.00 0.00 0.00 96 1009.3
20260509130059 22 210 0.0 0.0 0.00 0.00 0.00 96 1009.1
20260509124552 21 210 0.0 0.0 0.00 0.00 0.00 96 1008.4
20260509123113 21 217 0.0 1.6 0.00 0.00 0.00 96 1008.5
20260509121609 21 217 0.0 1.6 0.00 0.00 0.00 96 1008.4
20260509120054 21 217 0.0 3.2 0.00 0.00 0.00 96 1008.4
20260509114552 21 217 0.0 12.9 0.00 0.00 0.00 96 1007.8
20260509113050 21 217 0.0 11.3 0.00 0.00 0.00 96 1008.0
20260509111600 21 121 1.6 17.7 0.00 0.00 0.00 95 1007.9
20260509110047 21 92 0.0 11.3 0.00 0.00 0.00 95 1007.8
20260509104547 21 84 0.0 4.8 0.00 0.00 0.00 95 1008.2
20260509103056 21 84 0.0 6.4 0.00 0.00 0.00 95 1008.2
20260509101613 21 71 0.0 1.6 0.00 0.00 0.00 94 1008.7
20260509100042 21 71 0.0 0.0 0.00 0.00 0.00 94 1008.9
20260509094540 21 71 0.0 0.0 0.00 0.00 0.00 94 1008.9
20260509093037 22 71 0.0 0.0 0.00 0.00 0.00 94 1009.3
20260509091541 22 71 0.0 0.0 0.00 0.00 0.00 94 1009.2
20260509090039 22 71 0.0 0.0 0.00 0.00 0.00 94 1009.4
20260509084537 22 71 0.0 0.0 0.00 0.00 0.00 93 1009.8
20260509083032 22 71 0.0 0.0 0.00 0.00 0.00 93 1010.2
20260509081536 22 71 0.0 0.0 0.00 0.00 0.00 93 1010.3
20260509080030 22 71 0.0 0.0 0.00 0.00 0.00 93 1010.1
20260509074541 22 71 0.0 0.0 0.00 0.00 0.00 93 1010.0
20260509073029 22 71 0.0 0.0 0.00 0.00 0.00 93 1010.2
20260509071527 22 71 0.0 0.0 0.00 0.00 0.00 92 1009.9
20260509070026 22 71 0.0 0.0 0.00 0.00 0.00 92 1009.7
20260509064526 22 71 0.0 0.0 0.00 0.00 0.00 92 1009.7
20260509063029 22 71 0.0 0.0 0.00 0.00 0.00 92 1009.9
20260509061523 22 71 0.0 0.0 0.00 0.00 0.00 92 1009.6
20260509060023 22 71 0.0 0.0 0.00 0.00 0.00 91 1009.6
20260509054521 22 71 0.0 0.0 0.00 0.00 0.00 90 1009.5
20260509053022 22 71 0.0 0.0 0.00 0.00 0.00 90 1009.6
20260509051516 22 71 0.0 0.0 0.00 0.00 0.00 90 1009.6
20260509050012 22 71 0.0 0.0 0.00 0.00 0.00 90 1009.4
20260509044511 22 71 0.0 0.0 0.00 0.00 0.00 90 1009.7
20260509043011 22 71 0.0 0.0 0.00 0.00 0.00 90 1009.7
20260509041510 22 71 0.0 0.0 0.00 0.00 0.00 90 1009.8
20260509040010 22 71 0.0 0.0 0.00 0.00 0.00 89 1009.4
20260509034509 22 71 0.0 0.0 0.00 0.00 0.00 89 1009.2
20260509033009 22 71 0.0 0.0 0.00 0.00 0.00 88 1008.7
20260509031507 22 71 0.0 0.0 0.00 0.00 0.00 87 1008.6
20260509030007 23 71 0.0 0.0 0.00 0.00 0.00 88 1008.5
20260509024507 23 71 0.0 0.0 0.00 0.00 0.00 87 1008.4
20260509023008 23 71 0.0 0.0 0.00 0.00 0.00 87 1008.1
20260509021505 23 71 0.0 1.6 0.00 0.00 0.00 86 1008.0
20260509020011 23 71 0.0 1.6 0.00 0.00 0.00 86 1007.7
20260509014511 23 71 0.0 1.6 0.00 0.00 0.00 85 1007.7
20260509013010 23 71 0.0 0.0 0.00 0.00 0.00 85 1007.7
20260509011502 23 71 0.0 0.0 0.00 0.00 0.00 84 1007.8
20260509010001 23 71 0.0 1.6 0.00 0.00 0.00 84 1007.7
20260509004600 23 71 0.0 1.6 0.00 0.00 0.00 83 1007.5
20260509004504 23 71 0.0 1.6 0.00 0.00 0.00 83 1007.5
20260509003100 23 71 0.0 0.0 0.00 0.00 0.00 82 1007.6
20260509001558 23 70 0.0 3.2 0.00 0.00 0.00 82 1007.8
20260509000113 23 70 0.0 1.6 0.00 0.00 0.00 81 1007.9
20260508234558 23 70 0.0 1.6 0.00 0.00 0.00 81 1008.0
20260508233113 24 70 0.0 3.2 0.00 0.00 0.00 80 1007.9
20260508231556 24 70 0.0 1.6 0.00 0.00 0.00 79 1007.8
20260508230058 24 69 0.0 1.6 0.00 0.00 0.00 80 1007.7
20260508224553 24 69 0.0 1.6 0.00 0.00 0.00 80 1008.0
20260508223051 24 69 0.0 1.6 0.00 0.00 0.00 80 1008.1
20260508221546 23 68 0.0 1.6 0.00 0.00 0.00 81 1008.7
20260508220048 23 68 0.0 0.0 0.00 0.00 0.00 81 1008.9
20260508214545 23 69 0.0 1.6 0.00 0.00 0.00 81 1008.9
20260508213045 23 69 0.0 1.6 0.00 0.00 0.00 80 1009.1
20260508211542 23 68 0.0 0.0 0.00 0.00 0.00 80 1009.3
20260508210040 23 68 0.0 0.0 0.00 0.00 0.00 79 1009.6
20260508204540 23 68 0.0 1.6 0.00 0.00 0.00 79 1009.8
20260508203040 23 70 0.0 3.2 0.00 0.00 0.00 79 1009.8
20260508201539 23 69 0.0 1.6 0.00 0.00 0.00 78 1009.8
20260508200043 23 69 0.0 0.0 0.00 0.00 0.00 77 1009.9
20260508194535 22 69 0.0 1.6 0.00 0.00 0.00 78 1010.1
20260508193030 22 69 0.0 1.6 0.00 0.00 0.00 79 1010.3
20260508191528 21 69 0.0 3.2 0.00 0.00 0.00 81 1010.7
20260508190024 21 69 0.0 1.6 0.00 0.00 0.00 81 1010.8
20260508184521 20 68 0.0 0.0 0.00 0.00 0.00 82 1011.1
20260508183023 20 68 0.0 0.0 0.00 0.00 0.00 84 1011.2
20260508181513 19 68 0.0 0.0 0.00 0.00 0.00 86 1011.7
20260508180014 19 68 0.0 0.0 0.00 0.00 0.00 85 1012.1
20260508174510 19 68 0.0 0.0 0.00 0.00 0.00 85 1012.3
20260508173008 19 68 0.0 3.2 0.00 0.00 0.00 85 1012.4
20260508171506 18 68 0.0 0.0 0.00 0.00 0.00 85 1012.6
20260508170005 18 68 0.0 1.6 0.00 0.00 0.00 84 1012.9
20260508164504 18 68 0.0 1.6 0.00 0.00 0.00 85 1013.0
20260508163001 18 53 0.0 1.6 0.00 0.00 0.00 85 1012.9